This demonstration page uses our WeatherBlox Daily Observations layout. Learn more.

Hourly Observations for July 3, 2017

Temp ( °F °C ) Dew Point ( °F °C ) Humidity (%) Winds ( mph kmh ) Pressure ( in mb ) Visibility ( mi km ) Precip ( " mm )
12:54 am 00:54 Clear 72 22.2 69 20.6 91 91 Calm 29.98 1015 10 16.0934 0 0
1:54 am 01:54 Clear 70 21.1 68 20 93 93 N 6 9 29.98 1015 10 16.0934 0 0
2:54 am 02:54 Clear 69 20.6 67 19.4 93 93 Calm 29.95 1014 10 16.0934 0 0
3:54 am 03:54 Clear 70 21.1 68 20 93 93 Calm 29.93 1014 10 16.0934 0 0
4:54 am 04:54 Clear 70 21.1 68 20 93 93 E 3 6 29.94 1014 10 16.0934 0 0
5:54 am 05:54 Clear 70 21.1 68 20 93 93 S 5 7 29.96 1014 10 16.0934 0 0
6:54 am 06:54 Sunny 71 21.7 69 20.6 94 94 SE 5 7 29.95 1014 10 16.0934 0 0
7:54 am 07:54 Sunny 74 23.3 70 21.1 88 88 S 3 6 29.96 1014 10 16.0934 0 0
8:54 am 08:54 Sunny 78 25.6 65 18.3 64 64 Calm 29.96 1015 10 16.0934 0 0
9:54 am 09:54 Sunny 81 27.2 63 17.2 54 54 Calm 29.97 1015 10 16.0934 0 0
10:54 am 10:54 Sunny 83 28.3 64 17.8 53 53 NNW 7 11 29.97 1015 10 16.0934 0 0
11:54 am 11:54 Sunny 84 28.9 64 17.8 51 51 E 7 11 29.96 1015 10 16.0934 0 0
12:54 pm 12:54 Sunny 87 30.6 64 17.8 46 46 Calm 29.97 1015 10 16.0934 0 0
1:54 pm 13:54 Sunny 87 30.6 65 18.3 48 48 SSE 7 11 29.96 1014 10 16.0934 0 0
2:54 pm 14:54 Partly Cloudy 86 30 68 20 55 55 VRB 3 6 29.95 1014 10 16.0934 0 0
3:54 pm 15:54 Sunny 88 31.1 68 20 52 52 SSW 7 11 29.93 1013 10 16.0934 0 0
4:01 pm 16:01 Sunny with Nearby Thunderstorms 88 31.1 69 20.6 54 54 S 9 15 29.88 1012 10 16.0934 0 0
4:12 pm 16:12 Partly Cloudy with Thunderstorms 87 30.6 70 21.1 57 57 S 10 17 29.88 1012 10 16.0934 0 0
4:27 pm 16:27 Mostly Cloudy with Nearby Thunderstorms 80 26.7 65 18.3 60 60 SSE 23 37 29.94 1014 10 16.0934 0 0
4:41 pm 16:41 Cloudy with Thunderstorms 78 25.6 62 16.7 58 58 SE 22 35 29.94 1014 10 16.0934 0 0
4:54 pm 16:54 Mostly Cloudy with Thunderstorms 79 26.1 63 17.2 58 58 SE 16 26 29.97 1015 10 16.0934 0 0
5:08 pm 17:08 Partly Cloudy with Nearby Thunderstorms 79 26.1 69 20.6 72 72 S 12 19 29.94 1014 10 16.0934 0 0.0254
5:35 pm 17:35 Partly Cloudy 78 25.6 67 19.4 69 69 Calm 29.94 1014 10 16.0934 0 0.0254
5:54 pm 17:54 Sunny 78 25.6 66 18.9 67 67 S 7 11 29.96 1014 10 16.0934 0 0.0254
6:54 pm 18:54 Sunny 77 25 68 20 74 74 Calm 29.91 1013 10 16.0934 0 0
7:54 pm 19:54 Sunny 78 25.6 68 20 71 71 S 5 7 29.89 1012 10 16.0934 0 0
8:54 pm 20:54 Sunny 76 24.4 66 18.9 72 72 ENE 7 11 29.93 1014 10 16.0934 0 0
9:54 pm 21:54 Clear 73 22.8 66 18.9 79 79 E 9 15 29.95 1014 8 12.87472 0 0
10:54 pm 22:54 Hazy 73 22.8 65 18.3 76 76 Calm 29.94 1014 6 9.65604 0 0
11:54 pm 23:54 Clear with Mist and Fog 69 20.6 65 18.3 87 87 Calm 29.95 1014 4 6.43736 0 0

Powered by AerisWeather